Lid_Strength_Index
-0 0 2 5 10 11 14 12 9 10 9 6 5 7 8 7 9 12 2 1 0 0 -0 -1 -1 -1 -1 -1 -1 -1 -1 -1 -1 -1 -1 -2 -2 -2 -2 -2 -3 -3 -2 -2 -3 -2 -3 -2 -2
4 2 6 9 11 16 14 10 10 8 7 5 5 6 7 8 4 4 3 1 0 -0 -0 -0 -1 -1 -1 -1 -1 -1 -1 -1 -1 -1 -2 -2 -2 -2 -2 -3 -3 -2 -2 -2 -2 -2 -2 -2 -2
1 4 9 11 13 14 13 9 8 7 6 6 7 5 6 7 4 3 1 0 0 0 -0 -0 -1 -1 -1 -1 -1 -1 -1 -1 -1 -2 -2 -2 -2 -2 -2 -3 -3 -2 -1 -1 -1 -1 -1 -1 -2
6 8 9 12 14 11 9 8 7 7 6 5 5 8 4 3 3 2 1 0 0 0 -0 -1 -1 -1 -1 -1 -1 -1 -1 -1 -2 -2 -2 -2 -2 -2 -2 -2 -2 -2 -1 -1 -1 -1 -2 -2 -2
9 11 14 15 13 9 7 7 7 8 7 7 6 8 7 3 1 1 1 0 1 0 -0 -0 -1 -1 -1 -2 -1 -1 -1 -2 -2 -2 -2 -2 -2 -2 -2 -2 -2 -2 -2 -1 -1 -2 -2 -2 -2
11 12 16 17 13 10 7 7 6 7 7 6 7 7 7 2 2 1 1 1 -0 0 -0 -0 -1 -1 -1 -1 -1 -1 -2 -2 -2 -2 -3 -2 -2 -2 -2 -2 -2 -2 -2 -2 -2 -2 -3 -3 -3
12 14 16 16 14 12 9 6 7 7 7 7 6 8 6 4 3 1 1 0 0 -0 -0 -0 -0 -1 -1 -1 -2 -1 -2 -2 -2 -2 -2 -2 -2 -2 -2 -3 -2 -2 -2 -2 -3 -2 -3 -3 -4
11 13 16 15 14 12 8 7 6 6 7 5 4 8 8 4 2 1 1 1 1 0 -0 0 -0 -0 -0 -0 -2 -2 -2 -2 -2 -2 -2 -2 -2 -2 -2 -3 -3 -2 -2 -2 -2 -2 -4 -3 -3
11 14 16 14 11 10 9 8 7 4 6 5 4 5 4 2 2 2 3 2 1 1 0 0 1 0 0 0 -1 -2 -2 -2 -2 -2 -2 -2 0 -0 -0 -2 -2 -2 -1 -2 -3 -3 -3 -1 -1
12 15 13 9 8 11 10 8 6 7 7 6 6 4 3 3 3 3 3 3 2 2 1 1 1 0 0 -0 1 1 0 0 0 0 0 0 0 0 -1 -1 -2 -1 -2 -3 -2 -2 -1 1 3
12 12 10 7 9 9 9 8 7 7 9 7 7 5 4 4 4 4 3 3 2 1 3 0 0 0 1 0 0 0 0 1 1 0 0 1 0 2 1 2 2 1 -0 2 2 2 3 4 4
12 9 9 7 8 9 9 7 7 7 7 4 4 4 4 4 4 4 3 3 2 2 1 0 -0 1 2 2 2 2 2 1 1 2 1 2 2 2 3 2 3 3 3 3 3 4 4 4 4
11 9 8 8 8 9 7 7 7 7 5 4 4 4 5 4 4 3 2 3 2 2 1 1 0 0 2 1 1 1 2 1 2 2 1 1 2 2 2 2 2 3 3 4 4 4 5 5 5
8 9 9 9 9 8 7 8 7 7 5 5 5 5 4 4 4 3 3 3 2 2 1 0 0 1 1 2 3 3 2 2 2 2 2 1 2 2 2 2 2 2 3 3 4 5 5 6 6
9 10 9 9 9 9 7 10 9 6 5 6 6 5 5 4 3 4 3 3 2 1 1 1 2 1 2 2 2 2 1 2 3 2 2 2 2 3 3 3 3 3 3 4 4 5 6 6 6
10 11 13 11 9 8 8 14 8 6 6 7 6 5 5 4 3 3 3 3 2 3 3 3 2 2 2 2 2 2 2 2 2 1 2 1 1 2 2 3 2 3 3 4 4 5 6 7 7
12 14 14 11 9 8 9 12 8 6 7 7 6 6 5 5 4 3 2 2 3 3 3 3 3 2 2 2 2 1 2 2 1 1 1 2 1 1 2 2 3 2 4 4 4 5 6 7 6
14 13 12 11 9 10 11 11 9 7 7 7 7 6 6 5 5 3 3 3 2 2 2 3 3 3 3 3 2 2 2 1 1 1 1 1 1 1 3 2 3 4 5 5 5 6 6 6 6
10 10 11 10 9 11 11 11 10 7 7 8 7 6 6 6 4 3 2 2 2 3 2 3 3 2 2 3 2 2 3 2 1 1 0 0 0 2 2 3 4 4 5 5 5 5 6 6 6
9 11 12 10 8 11 11 12 9 8 8 7 7 7 6 5 5 3 3 2 2 3 3 3 3 3 3 2 2 2 2 0 0 1 1 -0 -0 0 1 2 2 3 5 5 6 6 7 6 6
11 11 11 11 9 9 11 13 11 9 7 7 6 6 5 5 6 6 5 5 4 3 3 3 3 3 3 2 2 2 2 1 1 1 1 -0 0 -0 0 1 2 4 5 6 6 6 7 8 7
12 9 9 10 11 14 11 19 13 10 10 8 7 7 6 6 6 6 5 5 4 4 3 3 3 3 2 2 3 3 3 3 2 2 1 2 2 1 0 0 2 4 5 5 5 4 6 7 8
10 9 10 10 12 13 12 16 14 11 12 10 8 8 8 7 7 6 6 4 4 3 3 3 3 3 3 2 3 2 3 3 2 2 4 3 2 1 1 2 2 3 4 5 5 5 5 6 7
8 10 11 12 13 15 14 16 16 14 12 10 8 8 8 8 7 6 5 4 4 3 3 3 4 4 3 3 2 2 3 3 4 4 4 4 3 2 1 0 1 2 3 5 5 4 4 6 7
10 13 16 16 17 17 12 15 15 11 9 8 9 8 8 7 7 6 6 6 5 5 4 5 5 4 4 4 4 4 2 3 4 4 4 4 3 2 1 -0 0 0 1 3 3 3 4 5 6
11 12 16 19 18 16 13 18 15 9 7 7 8 8 7 7 7 6 6 5 4 5 4 5 5 5 5 5 5 4 4 4 3 3 3 2 2 1 0 -0 -0 0 -0 -0 2 3 4 3 3
10 13 12 14 14 16 17 14 11 9 9 8 8 8 8 7 8 7 6 6 6 5 5 5 6 5 5 5 5 5 5 4 3 3 3 1 1 0 -0 -0 0 0 1 1 2 2 2 3 3
10 9 13 14 18 20 18 17 16 12 10 9 8 9 8 7 7 7 6 6 5 5 6 5 6 6 6 5 6 5 5 4 4 4 3 3 2 1 1 0 0 0 0 0 1 1 1 2 4
10 11 12 13 14 18 19 18 10 10 9 9 8 7 6 6 6 6 6 6 6 6 6 6 6 6 5 6 5 5 5 5 4 4 3 3 2 0 1 0 1 0 1 1 1 2 2 3 4
10 11 11 15 17 15 16 17 9 9 8 8 8 6 6 6 6 7 6 6 6 7 6 6 5 6 6 6 5 4 5 5 5 5 4 3 3 2 2 1 1 1 1 2 2 3 3 3 4